Home   Weather   Edinburgh   Past weeks
Flag for United Kingdom

Past Weather in Edinburgh, Scotland, United Kingdom — Yesterday and Last 2 Weeks

Now
52 °F

Scattered clouds.


Feels Like: 49 °F
Forecast: 51 / 44 °F
Wind: 7 mph from Southeast

Location: Edinburgh Airport

Current Time: Oct 17, 2019 at 12:12:53 pm

Latest Report: Oct 17, 2019 at 11:50 am


Visibility: N/A

Pressure: 29.53 "Hg

Humidity: 82%

Dew Point: 46 °F

Location of EdinburghLocation

Past Weather in Edinburgh — Graph

°F

Edinburgh Temperature Yesterday

Maximum temperature yesterday: 55 °F (at 2:20 pm)
Minimum temperature yesterday: 39 °F (at 11:50 pm)
Average temperature yesterday: 49 °F

High & Low Weather Summary for the Past Weeks

 TemperatureHumidityPressure
High61 °F (Oct 7, 2:50 pm)100% (Oct 3, 12:20 am)30.15 "Hg (Oct 3, 12:20 am)
Low30 °F (Oct 3, 7:20 am)55% (Oct 2, 1:50 pm)29.27 "Hg (Oct 8, 3:50 pm)
Average49 °F90%29.62 "Hg
* Reported Oct 2 11:20 am — Oct 17 11:20 am, Edinburgh. Weather by CustomWeather, © 2019

Note: Actual official high and low records may vary slightly from our data, if they occured in-between our weather recording intervals... More about our weather records

Advertising

Edinburgh Weather History for the Previous 24 Hours

Scroll right to see more
 ConditionsComfort  
Time TempWeatherWind HumidityBarometerVisibility
11:20 am
Thu, Oct 17
50 °FPassing clouds.7 mph94%29.53 "HgN/A
10:50 am48 °FPassing clouds.5 mph100%29.53 "HgN/A
10:20 am46 °FPassing clouds.2 mph100%29.53 "HgN/A
9:50 am43 °FPassing clouds.3 mph100%29.53 "HgN/A
9:20 am39 °FPassing clouds.2 mph100%29.53 "HgN/A
8:50 am36 °FPassing clouds.No wind100%29.53 "HgN/A
8:20 am34 °FPassing clouds.2 mph100%29.53 "HgN/A
7:50 am32 °FClear.No wind100%29.53 "HgN/A
7:20 am34 °FClear.No wind100%29.53 "HgN/A
6:50 am34 °FPassing clouds.2 mph100%29.53 "HgN/A
6:20 am32 °FPassing clouds.2 mph100%29.53 "HgN/A
5:50 am34 °FPassing clouds.1 mph100%29.53 "HgN/A
5:20 am34 °FPassing clouds.2 mph100%29.53 "HgN/A
4:50 am36 °FClear.1 mph100%29.53 "Hg10 mi
4:20 am34 °FClear.3 mph100%29.53 "Hg10 mi
3:50 am34 °FClear.1 mph100%29.53 "Hg10 mi
3:20 am36 °FClear.1 mph100%29.56 "Hg10 mi
2:50 am36 °FClear.1 mph100%29.56 "Hg10 mi
2:20 am37 °FClear.1 mph100%29.56 "Hg10 mi
1:50 am39 °FClear.2 mph93%29.56 "Hg10 mi
1:20 am39 °FClear.3 mph100%29.56 "Hg10 mi
12:50 am39 °FClear.3 mph93%29.56 "Hg10 mi
12:20 am39 °FClear.7 mph100%29.56 "Hg10 mi
11:50 pm
Wed, Oct 16
39 °FClear.5 mph100%29.56 "Hg10 mi
11:20 pm43 °FClear.3 mph93%29.56 "Hg10 mi
10:50 pm41 °FClear.3 mph100%29.53 "Hg10 mi
10:20 pm41 °FClear.7 mph100%29.53 "Hg10 mi
9:50 pm41 °FClear.9 mph100%29.53 "Hg10 mi
9:20 pm43 °FClear.8 mph100%29.53 "Hg10 mi
8:50 pm46 °FClear.8 mph87%29.53 "Hg10 mi
8:20 pm43 °FClear.7 mph93%29.53 "Hg10 mi
7:50 pm45 °FClear.8 mph93%29.50 "Hg10 mi
7:20 pm46 °FClear.9 mph93%29.50 "Hg10 mi
6:50 pm45 °FClear.8 mph93%29.50 "Hg10 mi
6:20 pm46 °FPassing clouds.7 mph93%29.50 "HgN/A
5:50 pm50 °FSunny.7 mph82%29.47 "Hg10 mi
5:20 pm54 °FSunny.9 mph77%29.47 "Hg10 mi
4:50 pm54 °FSunny.9 mph77%29.47 "Hg10 mi
4:20 pm55 °FSunny.12 mph67%29.47 "Hg10 mi
3:50 pm55 °FPassing clouds.9 mph72%29.47 "HgN/A
3:20 pm55 °FPassing clouds.12 mph72%29.45 "HgN/A
2:50 pm55 °FPassing clouds.13 mph72%29.45 "HgN/A
2:20 pm55 °FScattered clouds.14 mph77%29.45 "HgN/A
1:50 pm54 °FPartly sunny.14 mph82%29.42 "HgN/A
1:20 pm54 °FPartly sunny.8 mph88%29.42 "HgN/A
12:50 pm52 °FScattered clouds.10 mph94%29.42 "HgN/A
12:20 pm54 °FMore clouds than sun.17 mph94%29.39 "HgN/A
Weather by CustomWeather, © 2019

See weather overview